Impacts METAR Board
IDs:

KPHX - Phoenix/Sky Harbor, AZ, US

Updated at: 1900 UTC 02 Oct 2022
Potential Impact None Slight Moderate High
Time 02/07Z 02/08Z 02/09Z 02/10Z 02/11Z 02/12Z 02/13Z 02/14Z 02/15Z 02/16Z 02/17Z 02/18Z 02/19Z
Temp85 82 82 80 80 80 79 79 81 83 88 90 91
Dewpt55 59 59 61 61 61 61 61 60 60 60 58 56
Altim29.81 29.82 29.83 29.84 29.84 29.85 29.85 29.89 29.90 29.92 29.92 29.91 29.90
VIS10 10 10 10 10 10 10 10 10 10 10 10 10
CIG-- -- -- -- -- -- -- -- -- -- -- -- --
CoverFEWFEWSCTFEWSCTCLRFEWFEWFEWFEWFEWFEWFEW
FltCatVFRVFRVFRVFRVFRVFRVFRVFRVFRVFRVFRVFRVFR
WX--------------------------
WDir1201201201001301209010011080160130120
WSpd6 9 9 7 7 4 6 6 4 4 6 5 6
WGst-- -- -- -- -- -- -- -- -- -- -- -- --
Raw hourly METARs
KPHX 020651Z 12006KT 10SM FEW100 FEW120 29/13 A2981 RMK AO2 SLP074 T02940128 403610244 $
KPHX 020751Z 12009KT 10SM FEW120 28/15 A2982 RMK AO2 SLP078 T02780150 $
KPHX 020851Z 12009KT 10SM SCT100 28/15 A2983 RMK AO2 SLP081 T02780150 53009 $
KPHX 020951Z 10007KT 10SM FEW100 27/16 A2984 RMK AO2 SLP085 T02670161 $
KPHX 021051Z 13007KT 10SM SCT100 27/16 A2984 RMK AO2 SLP085 T02670161 $
KPHX 021151Z 12004KT 10SM CLR 27/16 A2985 RMK AO2 SLP086 T02670161 10306 20267 51005 $
KPHX 021251Z 09006KT 10SM FEW100 26/16 A2985 RMK AO2 SLP090 T02610161 $
KPHX 021351Z 10006KT 10SM FEW100 FEW150 26/16 A2989 RMK AO2 SLP101 T02610161 $
KPHX 021451Z 11004KT 10SM FEW100 FEW150 27/16 A2990 RMK AO2 SLP106 T02720156 53018 $
KPHX 021551Z 08004KT 10SM FEW100 FEW150 28/16 A2992 RMK AO2 SLP112 T02830156 $
KPHX 021651Z 16006KT 10SM FEW100 FEW160 31/16 A2992 RMK AO2 SLP112 T03110156 $
KPHX 021751Z 13005KT 10SM FEW100 FEW200 32/14 A2991 RMK AO2 SLP109 T03220144 10322 20256 50003 $
KPHX 021851Z 12006KT 10SM FEW100 FEW250 33/13 A2990 RMK AO2 SLP104 TCU DSNT NW T03280133 $



Page loaded:  19:43 UTC  |   12:43 PM Pacific  |   01:43 PM Mountain  |   02:43 PM Central  |   03:43 PM Eastern

 

ADVISORIES

FORECASTS

FORECASTS

OBSERVATIONS

USER TOOLS

ABOUT US